Regional Weather Roundup
Issued by NWS

Home | Current Version | Previous Version | Text Only | Print | Product List | Glossary Off
Versions: 1 2 3 4 5 6 7 8 9 10 11 12 13 14 15 16 17 18 19 20 21 22 23 24 25 26 27 28 29 30 31 32 33 34 35 36 37 38 39 40 41 42 43 44 45 46 47 48 49 50

000
ASUS45 KPSR 290000
RWRAZ

ARIZONA HOURLY REGIONAL WEATHER ROUNDUP
NATIONAL WEATHER SERVICE PHOENIX AZ
500 PM MST TUE JUL 28 2015

NOTE: FAIR INDICATES FEW OR NO CLOUDS BELOW 12,000 FEET WITH NO
SIGNIFICANT WEATHER AND/OR OBSTRUCTIONS TO VISIBILITY.

AZZ001>003-036-290100-
NORTHWEST ARIZONA

CITY           SKY/WX    TMP DP  RH WIND       PRES   REMARKS
KINGMAN        SUNNY     97  26   8 SW14G20   29.97F
6HR MIN TEMP:  91; 6HR MAX TEMP:  99;

$$

AZZ004>008-015-016-018-290100-
NORTH CENTRAL ARIZONA

CITY           SKY/WX    TMP DP  RH WIND       PRES   REMARKS
GRAND CANYON   SUNNY     85  19   9 VRB6      30.22F
6HR MIN TEMP:  77; 6HR MAX TEMP:  86;

WILLIAMS       SUNNY     84  27  12 S9        30.28S
PRESCOTT       MOSUNNY   89  39  17 NW7       30.09F
6HR MIN TEMP:  83; 6HR MAX TEMP:  91;

FLAGSTAFF      NOT AVBL
PAYSON         MOSUNNY   90  46  22 SW12G17   30.10S
PAGE           SUNNY     94  24   8 CALM      30.00F
6HR MIN TEMP:  86; 6HR MAX TEMP:  97;

$$

AZZ009>014-017-290100-
NORTHEAST ARIZONA

CITY           SKY/WX    TMP DP  RH WIND       PRES   REMARKS
WINSLOW        NOT AVBL
SAINT JOHNS    LGT RAIN  80  50  34 S9        30.14S
6HR MIN TEMP:  80; 6HR MAX TEMP:  88; 6HR PCP: TRACE;

WINDOW ROCK    MOSUNNY   85  33  15 E5        30.20F
6HR MIN TEMP:  75; 6HR MAX TEMP:  88; 6HR PCP: TRACE;

SHOW LOW       CLOUDY    72  50  46 S14       30.22R
$$

AZZ023-290100-
GREATER PHOENIX AREA

CITY           SKY/WX    TMP DP  RH WIND       PRES   REMARKS
PHOENIX        PTSUNNY  104  51  17 W9        29.75F HX 101
6HR MIN TEMP:  96; 6HR MAX TEMP: 106;

GLENDALE       MOSUNNY  106  54  17 S7        29.77F HX 104
LUKE AFB       MOSUNNY  104  55  20 E10       29.74F HX 103
DEER VALLEY    MOSUNNY  102  52  18 W6        29.77F
6HR MIN TEMP:  92; 6HR MAX TEMP: 103;

SCOTTSDALE     MOSUNNY  103  49  16 VRB6      29.79F
6HR MIN TEMP:  94; 6HR MAX TEMP: 104;

MESA-GATEWAY   MOSUNNY  100  54  20 W9        29.80F
CHANDLER       PTSUNNY  102  54  19 W9        29.77F HX 100
$$

AZZ027-028-290100-
SOUTHWEST MARICOPA COUNTY AND PINAL COUNTY

CITY           SKY/WX    TMP DP  RH WIND       PRES   REMARKS
CASA GRANDE    CLOUDY   100  54  20 CALM      29.79F
6HR MIN TEMP:  97; 6HR MAX TEMP: 102;

GILA BEND      PTSUNNY   99  63  30 SW16      29.74F THUNDER HX 100
$$

AZZ503-504-507>509-290100-
SOUTHEAST ARIZONA

CITY           SKY/WX    TMP DP  RH WIND       PRES   REMARKS
TUCSON         TSTM      78  68  71 W24G32    29.94R
6HR MIN TEMP:  78; 6HR MAX TEMP: 103; 6HR PCP: TRACE;

RYAN FIELD       N/A     91  61  35 MISG      29.90R
NOGALES        TSTM      70  32  24 SW10      30.08R
6HR MIN TEMP:  69; 6HR MAX TEMP:  96; 6HR PCP:  0.48;

SIERRA VISTA   CLOUDY    78  57  47 SW6       30.09S
6HR MIN TEMP:  78; 6HR MAX TEMP:  91; 6HR PCP: TRACE;

SAFFORD        CLOUDY    95  51  22 NW8       29.89S
6HR MIN TEMP:  90; 6HR MAX TEMP: 100;

$$

AZZ020-021-025-026-031-290100-
SOUTHWEST ARIZONA

CITY           SKY/WX    TMP DP  RH WIND       PRES   REMARKS
YUMA           NOT AVBL
$$

CAZ031-033-041-043-047-048-061-290100-
SOUTHERN CALIFORNIA

CITY           SKY/WX    TMP DP  RH WIND       PRES   REMARKS
DOWNTOWN L.A.  SUNNY     78  63  59 VRB3      29.83F
6HR MIN TEMP:  78; 6HR MAX TEMP:  85;

L.A. AIRPORT   SUNNY     74  63  68 W14       29.85F
6HR MIN TEMP:  73; 6HR MAX TEMP:  76;

SAN DIEGO      MOSUNNY   74  60  61 W9        29.87F
6HR MIN TEMP:  73; 6HR MAX TEMP:  77;

BURBANK        SUNNY     87  59  38 S9        29.83F
6HR MIN TEMP:  78; 6HR MAX TEMP:  89;

ONTARIO        SUNNY     93  58  30 W14       29.82F
6HR MIN TEMP:  79; 6HR MAX TEMP:  97;

RIVERSIDE      SUNNY     92  61  35 W13G20    29.81F
6HR MIN TEMP:  79; 6HR MAX TEMP:  96;

PALM SPRINGS   SUNNY    105  43  12 E5        29.75F HX 100
6HR MIN TEMP:  95; 6HR MAX TEMP: 107;

EL CENTRO NAS  MOSUNNY  107  58  20 NE5       29.70F HX 107
6HR MIN TEMP:  96; 6HR MAX TEMP: 107;

IMPERIAL       SUNNY    105  61  23 SE9       29.68F HX 106
6HR MIN TEMP:  95; 6HR MAX TEMP: 107;

BLYTHE         SUNNY    106  53  17 SW7       29.72F HX 104
6HR MIN TEMP:  96; 6HR MAX TEMP: 107;

$$

NVZ020-UTZ003-290100-
SOUTHERN NEVADA-UTAH

CITY           SKY/WX    TMP DP  RH WIND       PRES   REMARKS
LAS VEGAS      NOT AVBL
SALT LAKE CITY SUNNY     77  26  15 N12       30.20F
6HR MIN TEMP:  70; 6HR MAX TEMP:  77;

$$

NMZ009-TXZ055-290100-
NEW MEXICO-WEST TEXAS

CITY           SKY/WX    TMP DP  RH WIND       PRES   REMARKS
ALBUQUERQUE    CLOUDY    91  43  18 SW5       30.06F
6HR MIN TEMP:  86; 6HR MAX TEMP:  94;

EL PASO        MOSUNNY   98  48  18 SW7       29.93F
6HR MIN TEMP:  89; 6HR MAX TEMP: 100;

$$


........................KEY........................
SKY/WX - SKY CONDITION/WEATHER
TMP    - TEMPERATURE IN FAHRENHEIT
DP     - DEW POINT IN FAHRENHEIT
RH     - RELATIVE HUMIDITY IN PERCENT
WIND   - DIRECTION AND SPEED IN MILES PER HOUR (MPH)
VRB    - VARIABLE WIND DIRECTION
PRES   - MEAN SEA LEVEL PRESSURE IN INCHES OF MERCURY
         F - FALLING PRESSURE   R - RISING PRESSURE
         S - STEADY PRESSURE
VSB    - VISIBILITY IN MILES
HX     - HEAT INDEX IN FAHRENHEIT
WCI    - WIND CHILL INDEX IN FAHRENHEIT
TC     - TEMPERATURE IN CELSIUS WHICH IS ALSO KNOWN AS
         TEMPERATURE IN CENTIGRADE
AFB    - AIR FORCE BASE
         LUKE AFB IS LUKE AIR FORCE BASE
         DAVIS-MONTHAN IS DAVIS-MONTHAN AIR FORCE BASE
NAS    - NAVAL AIR STATION
         EL CENTRO NAS IS EL CENTRO NAVAL AIR STATION
N/A    - NOT AVAILABLE




USA.gov is the U.S. government's official web portal to all federal, state and local government web resources and services.